#timestamp,LO_Frequency,Hit,StdDev 
1611720015.2,286047001.0,N
1611720035.1,286046998.7,N
1611720036.0,286046998.7,N
1611720055.8,286046997.0,N
1611720075.6,286046997.1,N
1611720095.5,286046998.4,N
1611720115.3,286047002.6,N
1611720135.1,286047002.7,N
1611720155.9,286047002.7,N
1611720175.7,286047002.4,N
1611720195.6,286047000.1,N
1611720215.4,286047005.5,N
1611720235.2,286047005.0,N
1611720255.1,286047003.6,N
1611720256.0,286047003.6,N
1611720275.8,286047004.1,N
1611720295.7,286047003.7,N
1611720315.5,286047005.4,N
1611720335.3,286047002.9,N
1611720355.2,286047005.1,N
1611720375.0,286047003.0,N
1611720375.9,286047003.0,N
1611720395.8,286047004.2,N
1611720415.6,286047001.4,N
1611720435.4,286047003.8,N
1611720455.3,286047001.3,N
1611720475.1,286047000.9,N
1611720495.8,286047000.5,N
1611720515.7,286047000.2,N
1611720535.5,286047002.8,N
1611720555.4,286047001.4,N
1611720575.2,286047004.2,N
1611720595.0,286047003.4,N
1611720595.9,286047003.4,N
1611720615.8,286047003.1,N
1611720635.6,286047001.3,N
1611720655.5,286047004.3,N
1611720675.3,286047002.8,N
1611720695.1,286047004.2,N
1611720715.9,286047003.8,N
1611720735.7,286047006.4,Y
1611720755.5,286047005.1,P
1611720775.4,286047008.4,P
1611720795.2,286047008.0,P
1611720815.1,286047009.0,Y
1611720816.0,286047009.0,P
1611720835.8,286047002.5,N
1611720855.6,286047000.9,N
1611720875.5,286046996.6,N
1611720895.3,286046997.3,N
1611720915.2,286046996.5,N
1611720935.9,286046994.9,N
1611720955.7,286046994.3,N
1611720975.6,286046993.9,N
1611720995.4,286046993.7,N
1611721015.2,286046999.5,N
1611721035.1,286046995.4,N
1611721036.0,286046995.4,N
1611721055.8,286046994.6,N
1611721075.7,286046993.8,N
1611721095.5,286046994.7,N
1611721115.3,286046991.7,N
1611721135.2,286046992.0,N
1611721155.0,286046993.7,N
1611721155.9,286046993.7,N
1611721175.8,286046994.5,N
1611721195.6,286046996.3,N
1611721215.4,286046994.1,N
1611721235.3,286046991.7,N
1611721255.1,286046993.7,N
1611721275.9,286046993.6,N
1611721295.7,286046996.0,N
1611721315.5,286046995.0,N
1611721335.4,286046997.2,N
1611721355.2,286046997.5,N
1611721375.0,286046998.0,N
1611721375.9,286046998.0,N
1611721395.8,286046995.4,N
1611721415.6,286046995.2,N
1611721435.5,286046995.7,N
1611721455.3,286046995.1,N
1611721475.1,286046993.3,Y
1611721495.9,286047000.0,P
1611721515.7,286047000.9,N
1611721535.5,286047002.3,N
1611721555.4,286047002.8,N
1611721575.2,286047002.2,N
1611721595.1,286047002.8,N
1611721596.0,286047002.8,N
1611721615.8,286047001.4,N
1611721635.6,286047001.5,N
1611721655.5,286047000.1,N
1611721675.3,286046999.7,N
1611721695.2,286047003.7,N
1611721715.9,286047003.9,N
1611721735.7,286047001.8,N
1611721755.6,286047002.0,N
1611721775.4,286046999.9,N
1611721795.2,286047000.2,N
1611721815.1,286047001.1,N
1611721816.0,286047001.1,N
1611721835.8,286047000.9,N
1611721855.7,286047001.8,N
1611721875.5,286047003.9,N
1611721895.3,286046999.8,N
1611721915.2,286047001.3,N
1611721935.0,286047003.6,N
1611721935.9,286047003.6,N
1611721955.8,286047004.4,N
1611721975.6,286047004.1,N
1611721995.4,286047004.2,N
1611722015.3,286047002.2,N
1611722035.1,286047002.5,N
1611722055.8,286047000.6,N
1611722075.7,286047002.8,N
1611722095.5,286047000.6,N
1611722115.4,286046999.9,N
1611722135.2,286047001.0,N
1611722155.0,286046998.2,N
1611722155.9,286046998.2,N
1611722175.8,286046998.2,N
1611722195.6,286047001.1,N
1611722215.5,286047002.3,N
1611722235.3,286047002.0,N
1611722255.1,286047001.5,N
1611722275.9,286046998.5,N
1611722295.7,286047001.1,N
1611722315.6,286047001.1,N
1611722335.4,286047002.8,N
1611722355.2,286046999.9,N
1611722375.1,286047002.7,N
1611722376.0,286047002.7,N
1611722395.8,286047000.0,N
1611722415.6,286047002.5,N
1611722435.5,286047001.6,N
1611722455.3,286047002.1,N
1611722475.2,286047002.4,N
1611722495.9,286047001.9,N
1611722515.7,286047002.8,N
1611722535.6,286047002.6,N
1611722555.4,286047001.9,N
1611722575.2,286047002.2,N
1611722595.1,286047003.9,N
1611722596.0,286047003.9,N
1611722615.8,286047002.5,N
1611722635.7,286047002.4,N
1611722655.5,286047002.6,N
1611722675.3,286047002.4,N
1611722695.2,286047001.5,N
1611722715.0,286046999.7,N
1611722715.9,286046999.7,N
1611722735.8,286047001.0,N
1611722755.6,286046998.8,N
1611722775.4,286046998.8,N
1611722795.3,286046998.4,N
1611722815.1,286046999.1,N
1611722835.8,286046998.6,N
1611722855.7,286047000.4,N
1611722875.5,286047011.9,Y
1611722895.4,286046998.4,P
1611722915.2,286046998.6,N
1611722935.0,286046996.6,N
1611722935.9,286046996.6,N
1611722955.8,286046999.4,N
1611722975.6,286046998.3,N
1611722995.5,286046996.9,N
1611723015.3,286046996.6,N
1611723035.1,286046999.6,N
1611723055.9,286046997.7,N
1611723075.7,286046997.0,N
1611723095.5,286046999.6,N
1611723115.4,286046996.9,N
1611723135.2,286046996.7,N
1611723155.1,286046997.1,N
1611723156.0,286046997.1,N
1611723175.8,286046996.6,N
1611723195.6,286046997.2,N
1611723215.5,286046997.8,N
1611723235.3,286046997.7,N
1611723255.2,286046997.4,N
1611723275.9,286046995.8,Y
1611723295.7,286046998.7,P
1611723315.6,286046999.1,N
1611723335.4,286046997.6,P
1611723355.3,286046997.4,Y
1611723375.1,286047000.6,P
1611723376.0,286047000.6,N
1611723395.8,286047000.5,N
1611723415.7,286047002.7,N
1611723435.5,286047000.1,N
1611723455.3,286047000.9,N
1611723475.2,286047000.9,N
1611723495.0,286047000.3,N
1611723495.9,286047000.3,N
1611723515.8,286047000.1,N
1611723535.6,286047000.6,N
1611723555.4,286047000.1,N
1611723575.3,286047002.4,N
1611723595.1,286047000.1,N
